�������l�o���
Date,Time,MP-1(��Sv/h),MP-2(��Sv/h),MP-3(��Sv/h),MP-4(��Sv/h),MP-5(��Sv/h),MP-6(��Sv/h),MP-7(��Sv/h),MP-8(��Sv/h),����,����(m/s),���J
2023/10/13,00:00,0.516,0.788,0.485,0.977,0.705,0.317,0.567,0.526,���k��,5.8,��
2023/10/13,00:10,0.517,0.787,0.486,0.977,0.704,0.318,0.567,0.527,���k��,6.2,��
2023/10/13,00:20,0.518,0.789,0.486,0.979,0.704,0.317,0.567,0.526,���k��,6.0,��
2023/10/13,00:30,0.517,0.789,0.487,0.977,0.705,0.316,0.566,0.528,���k��,6.0,��
2023/10/13,00:40,0.518,0.789,0.484,0.977,0.705,0.316,0.567,0.528,���k��,6.5,��
2023/10/13,00:50,0.518,0.792,0.485,0.978,0.706,0.317,0.568,0.526,���k��,6.4,��
2023/10/13,01:00,0.515,0.789,0.485,0.977,0.704,0.316,0.567,0.528,���k��,5.5,��
2023/10/13,01:10,0.517,0.788,0.485,0.976,0.705,0.316,0.568,0.529,���k��,4.6,��
2023/10/13,01:20,0.518,0.790,0.484,0.979,0.705,0.316,0.569,0.527,���k��,5.7,��
2023/10/13,01:30,0.518,0.789,0.485,0.976,0.706,0.318,0.568,0.527,���k��,4.6,��
2023/10/13,01:40,0.517,0.789,0.485,0.978,0.702,0.316,0.569,0.529,��,5.0,��
2023/10/13,01:50,0.518,0.789,0.484,0.978,0.704,0.316,0.568,0.528,���k��,5.5,��
2023/10/13,02:00,0.517,0.788,0.485,0.976,0.704,0.317,0.568,0.525,��,4.8,��
2023/10/13,02:10,0.517,0.787,0.484,0.978,0.704,0.317,0.567,0.528,���k��,5.2,��
2023/10/13,02:20,0.518,0.788,0.483,0.978,0.706,0.316,0.568,0.528,���k��,6.7,��
2023/10/13,02:30,0.518,0.788,0.483,0.979,0.707,0.316,0.569,0.527,���k��,5.4,��
2023/10/13,02:40,0.517,0.788,0.485,0.977,0.705,0.317,0.568,0.529,�k��,4.9,��
2023/10/13,02:50,0.517,0.788,0.484,0.976,0.705,0.317,0.568,0.528,���k��,5.6,��
2023/10/13,03:00,0.519,0.787,0.485,0.978,0.707,0.317,0.570,0.529,���k��,5.6,��
2023/10/13,03:10,0.518,0.787,0.486,0.978,0.705,0.317,0.568,0.527,���k��,5.9,��
2023/10/13,03:20,0.517,0.788,0.483,0.978,0.704,0.317,0.567,0.528,���k��,5.9,��
2023/10/13,03:30,0.518,0.787,0.484,0.978,0.705,0.318,0.568,0.527,�k��,6.1,��
2023/10/13,03:40,0.517,0.789,0.484,0.977,0.704,0.316,0.569,0.528,�k��,5.9,��
2023/10/13,03:50,0.516,0.788,0.485,0.978,0.704,0.315,0.568,0.528,�k��,6.6,��
2023/10/13,04:00,0.518,0.789,0.484,0.979,0.704,0.317,0.569,0.529,�k��,7.9,��
2023/10/13,04:10,0.517,0.788,0.483,0.976,0.705,0.318,0.569,0.529,�k��,6.9,��
2023/10/13,04:20,0.516,0.787,0.484,0.978,0.705,0.316,0.568,0.528,�k��,6.6,��
2023/10/13,04:30,0.517,0.788,0.484,0.977,0.703,0.317,0.568,0.528,�k��,6.2,��
2023/10/13,04:40,0.517,0.786,0.484,0.977,0.705,0.316,0.567,0.527,�k��,6.4,��
2023/10/13,04:50,0.519,0.789,0.484,0.976,0.704,0.317,0.567,0.528,�k��,6.1,��
2023/10/13,05:00,0.518,0.788,0.485,0.979,0.704,0.316,0.568,0.528,�k��,5.6,��
2023/10/13,05:10,0.517,0.788,0.484,0.980,0.705,0.316,0.567,0.528,���k��,6.0,��
2023/10/13,05:20,0.518,0.787,0.483,0.979,0.706,0.317,0.567,0.528,���k��,6.3,��
2023/10/13,05:30,0.517,0.789,0.486,0.980,0.705,0.315,0.567,0.527,���k��,6.7,��
2023/10/13,05:40,0.517,0.787,0.485,0.978,0.704,0.317,0.566,0.529,���k��,6.4,��
2023/10/13,05:50,0.517,0.790,0.484,0.978,0.706,0.318,0.567,0.528,���k��,7.1,��
2023/10/13,06:00,0.517,0.787,0.486,0.978,0.705,0.316,0.569,0.527,���k��,7.3,��
2023/10/13,06:10,0.517,0.788,0.485,0.977,0.705,0.317,0.566,0.528,���k��,6.7,��
2023/10/13,06:20,0.517,0.788,0.485,0.978,0.703,0.317,0.569,0.528,���k��,7.0,��
2023/10/13,06:30,0.517,0.788,0.485,0.979,0.706,0.316,0.568,0.528,�k��,6.3,��
2023/10/13,06:40,0.517,0.788,0.485,0.979,0.704,0.317,0.569,0.529,���k��,5.9,��
2023/10/13,06:50,0.517,0.788,0.487,0.977,0.704,0.316,0.567,0.528,���k��,6.6,��
2023/10/13,07:00,0.517,0.790,0.486,0.978,0.705,0.316,0.569,0.528,�k��,6.5,��
2023/10/13,07:10,0.519,0.790,0.485,0.978,0.705,0.316,0.569,0.528,���k��,6.6,��
2023/10/13,07:20,0.518,0.790,0.485,0.980,0.705,0.318,0.569,0.527,���k��,5.1,��
2023/10/13,07:30,0.516,0.790,0.485,0.976,0.706,0.317,0.568,0.527,���k��,6.4,��
2023/10/13,07:40,0.518,0.789,0.484,0.977,0.705,0.317,0.568,0.528,���k��,5.1,��
2023/10/13,07:50,0.517,0.790,0.485,0.978,0.705,0.316,0.570,0.529,���k��,4.6,��
2023/10/13,08:00,0.518,0.788,0.485,0.979,0.705,0.315,0.569,0.529,�k��,4.8,��
2023/10/13,08:10,0.519,0.786,0.484,0.977,0.704,0.318,0.569,0.530,�k��,3.9,��
2023/10/13,08:20,0.518,0.787,0.485,0.981,0.706,0.318,0.567,0.530,�k��,4.1,��
2023/10/13,08:30,0.518,0.787,0.484,0.981,0.706,0.317,0.567,0.528,�k��,4.5,��
2023/10/13,08:40,0.516,0.787,0.486,0.981,0.705,0.318,0.567,0.528,�k��,5.5,��
2023/10/13,08:50,0.517,0.787,0.484,0.978,0.706,0.318,0.567,0.529,�k��,6.0,��
2023/10/13,09:00,0.517,0.786,0.486,0.978,0.704,0.317,0.568,0.529,�k��,4.5,��
2023/10/13,09:10,0.515,0.788,0.485,0.979,0.704,0.319,0.567,0.528,�k�k��,4.4,��
2023/10/13,09:20,0.519,0.786,0.484,0.980,0.705,0.317,0.567,0.528,�k��,3.5,��
2023/10/13,09:30,0.516,0.788,0.484,0.978,0.706,0.316,0.568,0.529,�k�k��,3.6,��
2023/10/13,09:40,0.518,0.788,0.487,0.980,0.705,0.316,0.568,0.528,�k��,3.7,��
2023/10/13,09:50,0.516,0.787,0.488,0.979,0.704,0.316,0.568,0.527,�k��,3.9,��
2023/10/13,10:00,0.516,0.788,0.487,0.980,0.705,0.316,0.567,0.526,�k��,3.1,��
2023/10/13,10:10,0.515,0.787,0.486,0.979,0.707,0.314,0.569,0.528,�k��,3.1,��
2023/10/13,10:20,0.513,0.787,0.485,0.978,0.705,0.317,0.568,0.527,�k�k��,4.8,��
2023/10/13,10:30,0.510,0.788,0.486,0.980,0.707,0.317,0.568,0.528,�k�k��,5.4,��
2023/10/13,10:40,0.511,0.788,0.485,0.980,0.707,0.317,0.566,0.529,�k�k��,4.7,��
2023/10/13,10:50,0.510,0.789,0.486,0.981,0.705,0.317,0.566,0.527,�k,4.8,��
2023/10/13,11:00,0.511,0.789,0.486,0.980,0.706,0.318,0.567,0.529,�k,3.1,��
2023/10/13,11:10,0.511,0.790,0.485,0.982,0.707,0.317,0.567,0.527,�k�k��,3.5,��
2023/10/13,11:20,0.512,0.789,0.486,0.982,0.709,0.317,0.569,0.529,�k�k��,3.8,��
2023/10/13,11:30,0.517,0.789,0.486,0.983,0.708,0.316,0.567,0.529,�k�k��,5.7,��
2023/10/13,11:40,0.518,0.791,0.487,0.982,0.707,0.318,0.567,0.529,�k�k��,5.2,��
2023/10/13,11:50,0.519,0.791,0.486,0.984,0.708,0.317,0.568,0.528,�k�k��,5.6,��
2023/10/13,12:00,0.519,0.794,0.487,0.983,0.709,0.317,0.568,0.529,�k�k��,5.2,��
2023/10/13,12:10,0.517,0.793,0.487,0.983,0.710,0.317,0.567,0.529,�k��,4.6,��
2023/10/13,12:20,0.518,0.792,0.486,0.981,0.710,0.318,0.566,0.529,�k�k��,4.5,��
2023/10/13,12:30,0.518,0.792,0.487,0.982,0.709,0.317,0.567,0.528,�k�k��,4.5,��
2023/10/13,12:40,0.521,0.794,0.489,0.983,0.709,0.317,0.567,0.528,�k�k��,3.8,��
2023/10/13,12:50,0.521,0.792,0.489,0.984,0.709,0.318,0.568,0.528,�k�k��,3.6,��
2023/10/13,13:00,0.519,0.793,0.486,0.982,0.710,0.318,0.568,0.529,�k�k��,3.7,��
2023/10/13,13:10,0.521,0.792,0.487,0.985,0.710,0.317,0.570,0.528,�k�k��,4.0,��
2023/10/13,13:20,0.521,0.791,0.487,0.985,0.710,0.317,0.568,0.530,�k��,4.4,��
2023/10/13,13:30,0.522,0.792,0.488,0.983,0.710,0.318,0.567,0.531,�k��,4.5,��
2023/10/13,13:40,0.521,0.792,0.488,0.984,0.712,0.318,0.568,0.529,�k��,4.3,��
2023/10/13,13:50,0.523,0.791,0.488,0.984,0.710,0.317,0.569,0.530,�k��,4.1,��
2023/10/13,14:00,0.519,0.794,0.488,0.984,0.712,0.317,0.569,0.529,�k��,3.7,��
2023/10/13,14:10,0.522,0.791,0.487,0.984,0.711,0.318,0.568,0.529,�k��,3.0,��
2023/10/13,14:20,0.521,0.793,0.485,0.982,0.714,0.318,0.569,0.529,�k��,4.1,��
2023/10/13,14:30,0.522,0.790,0.487,0.985,0.713,0.319,0.568,0.529,�k�k��,4.0,��
2023/10/13,14:40,0.522,0.792,0.488,0.984,0.712,0.317,0.569,0.530,�k��,3.7,��
2023/10/13,14:50,0.521,0.792,0.488,0.983,0.711,0.319,0.569,0.528,�k��,3.7,��
2023/10/13,15:00,0.521,0.794,0.488,0.983,0.710,0.318,0.569,0.529,�k�k��,4.2,��
2023/10/13,15:10,0.519,0.794,0.487,0.985,0.711,0.317,0.569,0.529,�k��,4.1,��
2023/10/13,15:20,0.519,0.791,0.488,0.983,0.712,0.318,0.567,0.529,�k��,5.4,��
2023/10/13,15:30,0.520,0.792,0.488,0.982,0.712,0.318,0.567,0.528,�k�k��,4.7,��
2023/10/13,15:40,0.520,0.793,0.486,0.983,0.713,0.318,0.568,0.529,�k��,4.2,��
2023/10/13,15:50,0.521,0.793,0.487,0.981,0.709,0.318,0.568,0.528,�k�k��,4.7,��
2023/10/13,16:00,0.522,0.792,0.489,0.981,0.710,0.319,0.570,0.529,�k�k��,5.0,��
2023/10/13,16:10,0.520,0.792,0.487,0.982,0.712,0.318,0.568,0.528,�k�k��,5.0,��
2023/10/13,16:20,0.520,0.793,0.489,0.982,0.710,0.320,0.568,0.529,�k�k��,4.8,��
2023/10/13,16:30,0.521,0.794,0.487,0.984,0.711,0.320,0.567,0.530,�k�k��,3.9,��
2023/10/13,16:40,0.521,0.796,0.490,0.985,0.711,0.319,0.568,0.528,�k,1.7,��
2023/10/13,16:50,0.522,0.796,0.490,0.986,0.714,0.319,0.567,0.531,�k�k��,2.6,��
2023/10/13,17:00,0.520,0.796,0.489,0.986,0.715,0.319,0.568,0.530,�k��,1.9,��
2023/10/13,17:10,0.522,0.795,0.491,0.983,0.714,0.321,0.568,0.531,���k��,2.8,��
2023/10/13,17:20,0.521,0.795,0.491,0.987,0.715,0.320,0.568,0.530,���k��,2.6,��
2023/10/13,17:30,0.523,0.795,0.488,0.985,0.715,0.320,0.568,0.531,���k��,2.6,��
2023/10/13,17:40,0.523,0.796,0.489,0.987,0.715,0.321,0.570,0.530,���k��,2.3,��
2023/10/13,17:50,0.523,0.796,0.488,0.987,0.714,0.321,0.570,0.530,��,2.3,��
2023/10/13,18:00,0.521,0.797,0.491,0.987,0.715,0.319,0.570,0.532,���k��,1.7,��
2023/10/13,18:10,0.522,0.795,0.490,0.987,0.713,0.319,0.570,0.530,���k��,2.6,��
2023/10/13,18:20,0.522,0.796,0.490,0.987,0.713,0.320,0.571,0.530,���k��,2.9,��
2023/10/13,18:30,0.522,0.796,0.489,0.987,0.712,0.320,0.570,0.531,�k��,3.5,��
2023/10/13,18:40,0.524,0.794,0.489,0.986,0.714,0.318,0.571,0.530,���k��,4.0,��
2023/10/13,18:50,0.523,0.796,0.489,0.986,0.713,0.320,0.572,0.530,�k��,4.7,��
2023/10/13,19:00,0.523,0.795,0.489,0.988,0.714,0.320,0.571,0.530,�k��,5.2,��
2023/10/13,19:10,0.522,0.795,0.490,0.986,0.714,0.320,0.571,0.530,�k��,5.3,��
2023/10/13,19:20,0.523,0.795,0.489,0.985,0.715,0.319,0.570,0.530,�k��,4.4,��
2023/10/13,19:30,0.523,0.794,0.490,0.988,0.714,0.321,0.570,0.529,�k��,4.2,��
2023/10/13,19:40,0.523,0.798,0.489,0.988,0.715,0.319,0.570,0.530,���k��,3.9,��
2023/10/13,19:50,0.523,0.795,0.489,0.989,0.714,0.319,0.571,0.530,���k��,4.2,��
2023/10/13,20:00,0.522,0.795,0.490,0.986,0.714,0.319,0.571,0.530,���k��,4.8,��
2023/10/13,20:10,0.522,0.796,0.489,0.986,0.714,0.319,0.570,0.529,���k��,5.6,��
2023/10/13,20:20,0.523,0.794,0.487,0.987,0.714,0.319,0.571,0.530,���k��,5.3,��
2023/10/13,20:30,0.523,0.796,0.489,0.988,0.714,0.319,0.570,0.530,���k��,5.3,��
2023/10/13,20:40,0.522,0.794,0.489,0.986,0.714,0.320,0.571,0.530,���k��,6.1,��
2023/10/13,20:50,0.523,0.794,0.489,0.986,0.714,0.321,0.570,0.530,���k��,6.3,��
2023/10/13,21:00,0.522,0.794,0.488,0.987,0.714,0.318,0.571,0.530,���k��,6.3,��
2023/10/13,21:10,0.524,0.794,0.489,0.987,0.713,0.320,0.573,0.531,���k��,5.7,��
2023/10/13,21:20,0.521,0.794,0.488,0.985,0.715,0.318,0.570,0.529,���k��,5.6,��
2023/10/13,21:30,0.522,0.795,0.489,0.988,0.714,0.319,0.570,0.530,���k��,6.0,��
2023/10/13,21:40,0.521,0.796,0.488,0.986,0.715,0.320,0.571,0.530,���k��,5.5,��
2023/10/13,21:50,0.522,0.794,0.488,0.985,0.713,0.319,0.572,0.531,���k��,6.2,��
2023/10/13,22:00,0.523,0.794,0.489,0.988,0.712,0.320,0.572,0.530,���k��,5.9,��
2023/10/13,22:10,0.521,0.794,0.488,0.987,0.714,0.319,0.570,0.531,���k��,5.8,��
2023/10/13,22:20,0.522,0.794,0.490,0.988,0.715,0.320,0.572,0.531,���k��,6.1,��
2023/10/13,22:30,0.523,0.795,0.488,0.987,0.712,0.320,0.570,0.530,���k��,5.9,��
2023/10/13,22:40,0.521,0.795,0.489,0.988,0.714,0.319,0.571,0.531,���k��,5.8,��
2023/10/13,22:50,0.521,0.794,0.487,0.990,0.712,0.319,0.571,0.530,���k��,6.1,��
2023/10/13,23:00,0.520,0.794,0.487,0.987,0.712,0.320,0.571,0.530,���k��,5.9,��
2023/10/13,23:10,0.523,0.796,0.489,0.988,0.716,0.319,0.573,0.530,���k��,6.0,��
2023/10/13,23:20,0.520,0.793,0.487,0.986,0.713,0.320,0.572,0.530,���k��,6.2,��
2023/10/13,23:30,0.522,0.795,0.489,0.989,0.715,0.320,0.572,0.531,���k��,5.8,��
2023/10/13,23:40,0.521,0.794,0.487,0.987,0.713,0.320,0.572,0.530,���k��,5.8,��
2023/10/13,23:50,0.520,0.793,0.489,0.989,0.713,0.319,0.571,0.529,���k��,5.4,��
